{"data":{"norad_id":43767,"intl_designator":"2018-099K","name":"CORVUS BC4","alt_names":[],"object_type":"PAYLOAD","status":"ACTIVE","operator":null,"country":"US","launch_date":"2018-12-03","launch_site_code":"AFWTR","launch_vehicle":null,"mission":null,"orbit_class":"UNKNOWN","rcs_meters":null,"size_class":null,"mass_kg":null,"dimensions":null,"purposes":["tech_demo"],"wikipedia_slug":null,"has_3d_model":false,"image_url":null,"decayed_at":null,"tle_current":{"epoch":"2026-05-25T02:20:39.526944Z","epoch_age_seconds":73506,"freshness":"FRESH","line1":"1 43767U 18099K   26145.09767971  .00003455  00000+0  20315-3 0  9998","line2":"2 43767  97.4086 188.7558 0010078  83.8816 276.3563 15.12274382408914","mean_motion":15.12274382,"eccentricity":0.0010078,"inclination_deg":97.4086,"raan_deg":188.7558,"arg_perigee_deg":83.8816,"mean_anomaly_deg":276.3563,"bstar":0.00020315,"rev_number":40891,"period_min":95.220815557001,"perigee_km":522.30444830121,"apogee_km":536.22700924132,"semimajor_km":6907.4027287713,"source":"CELESTRAK","updated_at":"2026-05-25T13:38:25.530513Z"}}}